• Em Portugal
  • Lista de países
  • Para 7 dias
  • Temperatura da água
  • Mapas de satélite
  • Mapa do tempo
  • Widgets de tempo
  • user-avatar
    Iniciar Sessão

    Previsão horária em Chwaliszow

    Hoje, 19 Setembro, Quarta-feira

    Tempo Temperatura Precipitação Vento Pressão Humidade
    00:00 +19°C° 0 mm 4 m/s 734 mmHg 65%
    01:00 +18°C° 0 mm 3 m/s 734 mmHg 65%
    02:00 +18°C° 0 mm 3 m/s 734 mmHg 65%
    03:00 +17°C° 0 mm 3 m/s 734 mmHg 65%
    04:00 +17°C° 0 mm 3 m/s 734 mmHg 65%
    05:00 +18°C° 0 mm 3 m/s 734 mmHg 65%
    06:00 +18°C° 0 mm 3 m/s 734 mmHg 65%
    07:00 +18°C° 0 mm 3 m/s 734 mmHg 64%
    08:00 +20°C° 0 mm 2 m/s 735 mmHg 60%
    09:00 +23°C° 0 mm 2 m/s 735 mmHg 56%
    10:00 +25°C° 0 mm 2 m/s 736 mmHg 52%
    11:00 +26°C° 0 mm 2 m/s 735 mmHg 50%
    12:00 +27°C° 0 mm 2 m/s 735 mmHg 48%
    13:00 +28°C° 0 mm 2 m/s 735 mmHg 45%
    14:00 +28°C° 0 mm 2 m/s 735 mmHg 46%
    15:00 +28°C° 0 mm 2 m/s 735 mmHg 47%
    16:00 +28°C° 0 mm 1 m/s 735 mmHg 47%
    17:00 +26°C° 0 mm 1 m/s 735 mmHg 54%
    18:00 +24°C° 0 mm 1 m/s 735 mmHg 60%
    19:00 +22°C° 0 mm 1 m/s 735 mmHg 66%
    20:00 +21°C° 0 mm 1 m/s 735 mmHg 68%
    21:00 +21°C° 0 mm 1 m/s 735 mmHg 70%
    22:00 +19°C° 0 mm 2 m/s 736 mmHg 73%
    23:00 +19°C° 0 mm 2 m/s 736 mmHg 74%

    Amanhã, 20 Setembro, Quinta-feira

    Tempo Temperatura Precipitação Vento Pressão Humidade
    00:00 +19°C° 0 mm 2 m/s 735 mmHg 75%
    01:00 +18°C° 0 mm 2 m/s 735 mmHg 76%
    02:00 +18°C° 0 mm 2 m/s 735 mmHg 77%
    03:00 +18°C° 0 mm 2 m/s 735 mmHg 77%
    04:00 +18°C° 0 mm 2 m/s 735 mmHg 78%
    05:00 +18°C° 0 mm 2 m/s 735 mmHg 77%
    06:00 +20°C° 0 mm 1 m/s 736 mmHg 75%
    07:00 +20°C° 0 mm 1 m/s 736 mmHg 74%
    08:00 +22°C° 0 mm 1 m/s 736 mmHg 67%
    09:00 +24°C° 0 mm 1 m/s 736 mmHg 60%
    10:00 +26°C° 0 mm 1 m/s 736 mmHg 52%
    11:00 +27°C° 0 mm 1 m/s 736 mmHg 49%
    12:00 +28°C° 0 mm 1 m/s 736 mmHg 46%
    13:00 +29°C° 0 mm 1 m/s 736 mmHg 42%
    14:00 +29°C° 0 mm 1 m/s 735 mmHg 43%
    15:00 +29°C° 0 mm 1 m/s 735 mmHg 43%
    16:00 +28°C° 0 mm 1 m/s 735 mmHg 43%
    17:00 +26°C° 0 mm 1 m/s 735 mmHg 49%
    18:00 +24°C° 0 mm 1 m/s 734 mmHg 54%
    19:00 +22°C° 0 mm 1 m/s 734 mmHg 60%
    20:00 +21°C° 0 mm 2 m/s 734 mmHg 61%
    21:00 +20°C° 0 mm 2 m/s 734 mmHg 63%
    22:00 +19°C° 0 mm 2 m/s 734 mmHg 65%
    23:00 +19°C° 0 mm 2 m/s 734 mmHg 67%

    Depois de amanhã, 21 Setembro, Sexta-feira

    Tempo Temperatura Precipitação Vento Pressão Humidade
    00:00 +19°C° 0 mm 2 m/s 733 mmHg 69%
    01:00 +18°C° 0 mm 2 m/s 733 mmHg 71%
    02:00 +18°C° 0 mm 2 m/s 733 mmHg 73%
    03:00 +18°C° 0 mm 2 m/s 732 mmHg 76%
    04:00 +17°C° 0 mm 3 m/s 732 mmHg 78%
    05:00 +18°C° 0 mm 3 m/s 732 mmHg 76%
    06:00 +18°C° 0 mm 3 m/s 732 mmHg 74%
    07:00 +19°C° 0 mm 3 m/s 731 mmHg 72%
    08:00 +21°C° 0 mm 4 m/s 731 mmHg 64%
    09:00 +23°C° 0 mm 5 m/s 731 mmHg 57%
    10:00 +24°C° 0 mm 6 m/s 731 mmHg 49%
    11:00 +26°C° 0 mm 6 m/s 731 mmHg 46%
    12:00 +27°C° 0 mm 6 m/s 730 mmHg 44%
    13:00 +28°C° 0 mm 6 m/s 730 mmHg 41%
    14:00 +28°C° 0 mm 6 m/s 729 mmHg 42%
    15:00 +28°C° 0 mm 5 m/s 729 mmHg 44%
    16:00 +28°C° 0 mm 5 m/s 729 mmHg 45%
    17:00 +26°C° 0 mm 5 m/s 729 mmHg 49%
    18:00 +25°C° 0 mm 4 m/s 729 mmHg 53%
    19:00 +22°C° 0 mm 4 m/s 729 mmHg 57%
    20:00 +21°C° 0.1 mm 4 m/s 730 mmHg 64%
    21:00 +20°C° 0.1 mm 4 m/s 731 mmHg 71%
    22:00 +18°C° 0.1 mm 4 m/s 731 mmHg 78%
    23:00 +17°C° 0.2 mm 4 m/s 732 mmHg 78%

    22 Setembro, Sábado

    Tempo Temperatura Precipitação Vento Pressão Humidade
    00:00 +15°C° 0.2 mm 4 m/s 732 mmHg 79%
    01:00 +14°C° 0.2 mm 4 m/s 733 mmHg 79%
    02:00 +13°C° 1.1 mm 3 m/s 733 mmHg 81%
    03:00 +12°C° 1.1 mm 3 m/s 733 mmHg 82%
    04:00 +13°C° 1.1 mm 2 m/s 734 mmHg 84%
    05:00 +11°C° 0.2 mm 3 m/s 734 mmHg 83%
    06:00 +11°C° 0.2 mm 3 m/s 734 mmHg 82%
    07:00 +11°C° 0.2 mm 3 m/s 735 mmHg 82%
    08:00 +11°C° 0.3 mm 4 m/s 735 mmHg 77%
    09:00 +12°C° 0.3 mm 4 m/s 735 mmHg 73%
    10:00 +12°C° 0.3 mm 5 m/s 735 mmHg 69%
    11:00 +13°C° 0.1 mm 5 m/s 735 mmHg 63%
    12:00 +14°C° 0.1 mm 5 m/s 735 mmHg 56%
    13:00 +15°C° 0.1 mm 5 m/s 735 mmHg 50%
    14:00 +15°C° 0.1 mm 5 m/s 734 mmHg 49%
    15:00 +15°C° 0.1 mm 5 m/s 734 mmHg 48%
    16:00 +15°C° 0.1 mm 5 m/s 734 mmHg 46%
    17:00 +14°C° 0 mm 4 m/s 734 mmHg 51%
    18:00 +12°C° 0 mm 3 m/s 734 mmHg 55%
    19:00 +12°C° 0 mm 2 m/s 734 mmHg 60%
    20:00 +10°C° 0 mm 2 m/s 735 mmHg 61%
    21:00 +10°C° 0 mm 2 m/s 735 mmHg 63%
    22:00 +9°C° 0 mm 2 m/s 735 mmHg 64%
    23:00 +9°C° 0 mm 2 m/s 735 mmHg 65%

    23 Setembro, Domingo

    Tempo Temperatura Precipitação Vento Pressão Humidade
    00:00 +8°C° 0 mm 2 m/s 736 mmHg 67%
    01:00 +8°C° 0 mm 2 m/s 736 mmHg 68%
    02:00 +8°C° 0 mm 2 m/s 736 mmHg 70%
    03:00 +7°C° 0 mm 2 m/s 736 mmHg 72%
    04:00 +7°C° 0 mm 2 m/s 735 mmHg 73%
    05:00 +8°C° 0 mm 2 m/s 735 mmHg 73%
    06:00 +8°C° 0 mm 2 m/s 735 mmHg 72%
    07:00 +8°C° 0 mm 2 m/s 735 mmHg 72%
    08:00 +10°C° 0 mm 2 m/s 735 mmHg 64%
    09:00 +12°C° 0 mm 3 m/s 734 mmHg 56%
    10:00 +14°C° 0 mm 3 m/s 734 mmHg 48%
    11:00 +15°C° 0 mm 4 m/s 733 mmHg 46%
    12:00 +16°C° 0 mm 5 m/s 732 mmHg 43%
    13:00 +17°C° 0 mm 5 m/s 731 mmHg 41%
    14:00 +17°C° 0 mm 6 m/s 730 mmHg 44%
    15:00 +17°C° 0 mm 6 m/s 729 mmHg 47%
    16:00 +17°C° 0 mm 6 m/s 727 mmHg 49%
    17:00 +16°C° 0 mm 6 m/s 726 mmHg 52%
    18:00 +15°C° 0 mm 7 m/s 725 mmHg 55%
    19:00 +15°C° 0 mm 7 m/s 724 mmHg 58%
    20:00 +15°C° 0.1 mm 7 m/s 723 mmHg 59%
    21:00 +15°C° 0.1 mm 7 m/s 722 mmHg 60%
    22:00 +15°C° 0.1 mm 7 m/s 721 mmHg 61%
    23:00 +15°C° 0.5 mm 7 m/s 721 mmHg 65%

    24 Setembro, Segunda-feira

    Tempo Temperatura Precipitação Vento Pressão Humidade
    00:00 +15°C° 0.5 mm 6 m/s 721 mmHg 70%
    01:00 +15°C° 0.5 mm 6 m/s 721 mmHg 75%
    02:00 +14°C° 0.3 mm 6 m/s 721 mmHg 76%
    03:00 +13°C° 0.3 mm 6 m/s 721 mmHg 77%
    04:00 +11°C° 0.3 mm 6 m/s 721 mmHg 78%
    05:00 +11°C° 0.2 mm 6 m/s 721 mmHg 78%
    06:00 +10°C° 0.2 mm 6 m/s 721 mmHg 78%
    07:00 +10°C° 0.2 mm 6 m/s 721 mmHg 77%
    08:00 +10°C° 0.4 mm 6 m/s 721 mmHg 76%
    09:00 +10°C° 0.4 mm 7 m/s 721 mmHg 75%
    10:00 +10°C° 0.4 mm 8 m/s 720 mmHg 74%
    11:00 +11°C° 0 mm 8 m/s 720 mmHg 71%
    12:00 +12°C° 0 mm 8 m/s 721 mmHg 68%
    13:00 +13°C° 0 mm 8 m/s 721 mmHg 65%
    14:00 +12°C° 0.1 mm 8 m/s 721 mmHg 69%
    15:00 +12°C° 0.1 mm 8 m/s 722 mmHg 72%
    16:00 +11°C° 0.1 mm 8 m/s 723 mmHg 75%
    17:00 +10°C° 0.1 mm 8 m/s 724 mmHg 75%
    18:00 +9°C° 0.1 mm 8 m/s 725 mmHg 74%
    19:00 +8°C° 0.1 mm 7 m/s 726 mmHg 73%
    20:00 +8°C° 0 mm 7 m/s 727 mmHg 72%
    21:00 +8°C° 0 mm 7 m/s 728 mmHg 72%
    22:00 +7°C° 0 mm 8 m/s 729 mmHg 71%
    23:00 +6°C° 0 mm 8 m/s 729 mmHg 72%
    Mostrar mais